sat.trackr.live / text

‹ back to catalog

STARLINK-34694

NORAD 66189 · 2025-243N

PAYLOAD ACTIVE UNKNOWN

§ Identity

Operator
Country
US
Launch date
2025-10-26
Launch site
AFETR
Launch vehicle
Mass (kg)
RCS (m²)

Purposes: comms

External: N2YO · Heavens-Above · Gunter

§ Orbital elements

Epoch: 2026-05-24T17:11:55.124736Z

Period
94.11 min
Inclination
53.1579°
Eccentricity
0.0001029
Mean motion
15.30198755 rev/d
Perigee alt
474.5 km
Apogee alt
475.9 km
Semi-major
6,853.4 km
B*
8.3879e-4
RAAN
252.1306°
Arg perigee
81.3617°
Mean anomaly
278.7501°
Rev number
3,229

§ Raw data

STARLINK-346941 66189U 25243N   26144.71661024  .00024565  00000+0  83879-3 0  99992 66189  53.1579 252.1306 0001029  81.3617 278.7501 15.30198755 32299

JSON: /api/v1/satellites/66189 · /tle

For live sub-satellite position, see the globe view (requires WebGL).

§ Visibility from observer

Set your observer location to see the next 7 days of passes ≥ 10°. The values pass through the URL so the page stays shareable.

No JS? Fill the form by hand. The geolocation button needs JavaScript.